Dewpoint
49 48 48 47 47 47 47 46 46 46 45 43 42 41 40 39 38 38 37 36 36 35 34 33 33 33 33 35 37 36 34 32 32 33 33 33 29 25 24 24 24 24 24 24 24 24 24 25 25 25 24 24 22 21 21 21 21 22 22 22 22 22 22 21 21 22 22 23 24
48 47 47 47 47 47 46 46 45 45 44 42 41 40 40 39 38 38 37 36 36 35 34 33 33 33 33 35 36 35 33 30 31 31 30 27 24 24 24 24 24 23 23 23 23 23 24 24 24 24 24 23 22 21 20 20 20 21 21 21 22 22 22 21 22 22 23 23 24
47 47 47 47 46 46 45 45 44 43 42 42 41 40 39 39 38 38 37 36 36 35 34 33 32 32 33 34 36 35 33 29 29 29 27 24 24 23 23 23 24 24 23 22 23 23 23 24 24 24 24 22 22 22 22 23 22 21 20 21 22 23 22 22 22 23 23 23 23
47 47 46 46 46 45 45 44 43 42 42 41 40 39 39 39 38 38 37 37 37 35 34 33 31 31 32 33 35 34 31 29 27 26 25 24 24 23 23 23 23 23 23 22 22 23 23 24 24 24 24 22 21 21 22 23 22 21 21 22 23 22 22 22 23 24 24 24 24
46 46 46 46 45 45 44 44 43 42 41 40 39 39 39 39 38 38 37 37 36 35 34 33 30 29 30 33 33 31 29 29 27 26 26 25 24 24 23 23 23 22 22 22 22 22 23 24 24 24 23 22 22 21 21 21 21 22 23 24 23 23 22 23 24 24 25 24 24
46 46 46 45 45 44 44 43 42 41 40 40 39 39 39 38 38 38 37 36 36 35 34 33 31 30 31 32 30 30 30 32 32 29 27 24 24 24 24 23 22 21 21 21 21 22 22 23 24 23 23 22 20 20 21 21 21 21 21 23 24 24 23 23 24 25 25 24 24
46 45 45 44 44 43 42 42 41 40 40 39 39 39 38 38 38 37 36 35 35 34 33 32 30 29 29 29 31 31 31 31 30 28 26 24 25 25 24 22 21 20 20 21 20 21 21 22 23 24 24 23 21 20 20 21 21 20 20 21 24 24 24 23 25 25 25 24 23
45 45 44 43 43 42 42 41 40 39 39 39 38 38 38 38 37 36 35 34 33 33 32 30 28 28 28 29 30 28 27 26 27 27 27 25 24 23 22 21 20 20 20 20 20 20 21 22 23 23 23 22 22 21 20 20 20 20 20 20 23 24 24 22 24 25 24 24 23
44 44 43 43 42 42 42 42 40 39 38 38 38 38 38 37 36 35 34 33 33 32 30 28 27 28 29 29 27 24 23 23 24 25 24 24 21 20 19 19 19 19 19 20 20 20 21 21 22 22 22 23 22 20 19 18 18 19 20 22 23 24 24 24 24 24 24 24 24
44 43 43 43 42 42 42 42 41 39 38 38 38 38 37 37 36 34 33 32 32 30 29 26 27 28 28 26 25 24 22 22 22 22 21 21 20 20 19 19 19 19 19 19 20 20 20 20 20 20 20 20 20 19 19 18 18 19 20 22 23 23 23 24 24 24 24 24 24
43 43 42 42 42 42 42 42 41 39 38 38 37 37 37 36 35 34 33 32 30 29 27 25 26 26 25 24 23 23 23 22 21 20 20 20 20 20 19 19 19 19 18 18 19 19 19 19 19 19 19 20 19 19 19 18 18 19 20 21 22 22 22 23 23 24 24 24 23
43 43 43 43 42 43 43 42 40 39 38 38 37 36 35 34 33 33 32 31 29 28 26 25 25 25 24 23 23 23 23 21 20 20 20 19 19 19 18 18 17 17 17 18 18 18 18 18 18 18 18 19 19 19 19 19 19 19 19 20 21 21 21 21 21 22 22 23 22
43 43 44 44 44 44 44 42 41 39 38 37 36 35 34 33 33 32 31 29 28 27 25 25 25 24 24 23 23 22 21 20 20 20 20 18 18 18 17 17 17 17 17 18 18 18 17 17 17 17 18 19 19 20 20 19 19 19 19 20 20 20 20 20 20 20 21 22 21
44 44 45 45 45 45 44 42 41 40 38 37 35 34 33 32 32 31 30 28 27 26 25 24 24 23 22 22 22 21 20 19 19 19 19 18 18 17 17 17 17 17 17 18 18 18 17 17 17 17 17 18 19 19 19 19 19 20 20 20 20 20 19 19 19 19 20 20 20
45 45 45 46 46 45 43 42 41 39 37 35 33 33 32 32 32 31 29 27 26 25 25 24 24 23 22 21 21 20 20 20 20 19 19 19 17 17 16 17 17 17 17 17 17 17 17 17 17 17 17 17 17 18 18 18 19 19 20 20 19 19 19 19 19 19 19 19 19
45 45 45 45 44 42 41 40 38 37 35 33 32 32 32 31 31 30 28 26 25 25 25 24 23 22 22 21 20 20 20 20 19 19 19 19 18 17 17 17 17 17 17 17 17 17 17 18 18 18 18 18 18 18 18 18 19 19 19 19 19 19 19 20 20 20 19 20 20
45 44 44 42 41 39 38 37 35 33 32 31 31 31 31 31 30 29 28 27 26 25 24 24 23 22 22 22 23 21 20 20 20 19 18 17 17 17 17 17 17 16 16 16 17 17 17 18 18 18 18 18 19 19 19 19 19 19 19 19 19 19 20 21 22 21 20 20 21
44 43 41 39 37 35 33 32 31 30 30 30 30 30 30 29 29 29 28 27 26 25 24 22 21 21 22 23 23 21 20 20 20 18 17 16 16 16 16 16 16 15 15 15 16 16 16 16 16 17 18 18 18 19 19 20 20 20 20 20 20 20 20 22 22 21 21 20 22
42 41 38 36 33 31 30 29 29 28 28 28 28 28 28 28 27 27 27 26 25 24 22 20 20 20 20 20 20 19 18 18 17 16 16 16 16 15 15 15 15 15 15 15 15 15 15 15 16 17 18 18 19 19 20 20 20 20 20 20 21 21 21 21 21 21 21 20 22
40 38 35 33 30 29 28 27 27 27 27 26 26 26 26 26 26 26 25 24 24 22 20 20 19 19 19 18 17 17 17 17 16 15 15 15 15 15 14 14 15 15 15 15 16 17 18 19 19 20 20 21 22 22 21 22 22 22 22 23 23 23 23 22 22 21 21 21 21
38 35 32 30 28 27 27 26 26 26 25 25 25 25 25 25 25 25 24 23 22 20 20 20 19 18 17 17 16 16 16 17 16 15 15 15 15 15 15 16 17 18 19 20 21 22 23 24 24 24 24 25 25 25 24 24 24 24 24 24 24 24 24 23 23 22 22 21 20
33 31 29 28 27 27 26 26 25 25 24 24 24 24 24 24 24 24 24 22 21 21 21 21 20 19 18 18 17 16 17 17 16 15 15 15 16 17 18 19 20 22 23 24 24 25 26 27 27 27 27 27 27 27 27 26 26 25 25 24 24 24 24 23 23 23 22 21 20
30 29 27 27 27 27 27 26 25 24 24 24 24 24 24 23 24 23 22 20 20 21 23 22 21 20 19 18 17 17 16 16 15 15 16 16 17 19 20 21 22 24 24 26 27 27 28 28 28 28 28 28 27 27 27 27 26 26 25 24 24 24 24 24 23 23 23 22 21
27 27 27 27 27 27 26 26 26 25 24 24 24 24 23 23 22 21 20 19 20 20 20 20 21 21 20 18 17 16 16 15 15 15 16 17 19 20 21 22 23 24 26 27 29 30 30 30 30 29 29 29 28 28 27 27 26 26 25 25 24 24 24 24 24 24 23 23 22
26 27 27 28 28 27 27 27 27 26 26 25 24 24 22 20 20 19 19 19 19 19 18 18 20 21 20 18 17 16 16 15 15 16 17 19 20 20 21 22 24 25 28 31 32 33 33 33 32 31 30 29 29 28 28 27 27 26 25 25 25 24 24 24 23 23 23 24 23
27 27 28 28 28 27 27 27 27 26 26 26 25 24 21 20 19 19 19 18 18 18 18 18 20 20 20 17 17 16 16 16 16 17 18 19 20 21 21 22 24 25 28 32 33 33 34 33 33 33 31 29 29 28 28 27 27 26 26 25 25 24 24 23 23 23 23 23 22
28 27 27 27 27 27 27 27 26 26 25 24 24 22 21 20 19 19 18 17 18 18 18 19 21 21 20 16 16 16 16 17 17 18 19 20 20 21 22 23 24 26 29 31 33 33 33 33 33 33 32 30 29 28 28 27 27 26 25 25 24 24 23 23 23 23 23 23 21
27 27 27 27 27 27 27 27 26 25 24 24 23 22 21 21 20 20 19 18 19 18 18 19 20 20 18 17 16 16 16 17 18 19 19 20 21 22 22 23 24 27 30 32 32 32 32 32 31 31 31 31 29 28 27 26 26 26 25 24 24 24 23 23 23 23 23 22 21
26 27 27 27 27 27 27 27 26 24 24 23 22 22 21 21 21 20 20 18 19 19 18 18 18 18 18 18 18 18 18 18 19 20 20 20 21 22 23 24 26 29 30 31 31 31 31 30 30 29 30 31 31 29 27 26 25 25 25 24 24 24 24 23 23 23 23 22 21
27 27 27 27 27 27 27 26 24 23 22 22 21 21 21 20 20 19 18 17 18 19 19 19 19 19 18 19 19 20 20 20 20 20 20 20 21 22 24 26 27 29 30 30 30 30 29 29 29 29 29 30 32 29 26 26 25 25 24 24 24 24 24 23 23 23 22 22 21
29 29 29 29 29 28 26 24 23 22 21 20 20 19 18 17 18 18 19 19 20 21 21 21 20 20 20 21 21 21 21 21 21 20 20 21 23 24 25 26 28 29 30 30 30 29 29 29 28 28 28 29 32 29 26 25 25 25 24 24 24 24 23 23 22 22 21 21 21
31 31 31 30 29 28 25 23 22 20 20 18 18 18 19 20 22 23 23 23 23 23 23 22 21 21 21 21 21 21 21 21 20 20 21 21 22 23 24 25 28 29 31 30 29 29 29 28 28 28 28 29 31 29 26 25 25 24 24 24 23 23 22 22 21 21 20 21 20
32 32 31 30 29 26 24 22 20 20 19 20 21 22 24 27 29 29 29 29 29 29 29 28 26 25 24 23 23 22 22 21 22 23 23 22 22 23 24 26 27 29 30 30 29 29 28 28 27 28 28 29 29 27 25 24 24 24 23 23 22 22 21 20 20 20 20 20 20
32 31 30 28 26 24 23 22 22 23 25 26 27 28 30 31 32 32 32 33 33 33 33 32 30 28 26 24 23 22 21 22 21 21 22 23 23 23 23 24 26 28 30 29 29 28 27 27 27 28 29 30 28 26 24 24 23 23 22 22 21 21 20 20 19 19 19 19 19
31 30 28 26 24 24 24 25 27 29 30 30 31 32 33 33 33 33 33 34 33 33 32 31 28 26 24 23 22 21 20 20 19 20 20 22 23 23 24 24 26 28 29 29 28 27 27 26 27 28 29 30 27 25 24 23 23 22 22 21 21 20 20 20 19 19 19 20 20
31 29 29 27 27 28 29 30 31 32 32 32 32 33 33 33 33 33 33 33 31 29 27 25 24 23 21 20 20 20 20 18 18 19 20 20 20 21 22 24 25 28 29 28 27 27 26 26 26 28 29 29 25 24 23 22 22 22 21 21 21 20 20 20 19 19 20 21 22
33 31 31 31 31 32 32 33 33 32 32 32 32 32 32 30 29 29 28 27 24 23 22 21 21 20 20 20 19 20 20 19 19 19 20 21 19 19 20 21 22 25 28 27 26 26 25 25 26 27 28 27 24 22 22 22 22 22 21 21 21 20 20 19 20 20 21 22 24
34 34 33 33 33 33 33 33 32 31 31 31 31 30 28 25 23 23 22 22 21 20 20 20 20 20 20 20 20 20 20 20 20 20 20 20 19 19 19 19 19 22 26 25 25 25 25 25 25 26 27 27 23 21 21 22 21 21 21 21 20 20 20 20 20 21 22 23 25
35 35 35 35 34 33 33 32 31 30 30 29 27 24 22 21 20 20 20 20 20 20 20 20 20 20 20 21 20 19 19 20 20 20 19 18 20 21 20 18 18 21 24 24 24 24 24 24 24 26 27 28 23 21 22 21 21 21 21 20 20 20 20 20 21 21 21 22 25
34 34 34 34 33 33 32 31 30 29 28 25 23 21 20 20 20 20 21 20 20 20 20 20 20 21 21 21 19 19 19 19 20 20 20 21 24 25 23 18 18 20 23 23 23 23 23 24 24 25 27 28 23 22 22 21 20 20 20 20 20 20 20 20 21 21 21 21 23
35 35 34 33 32 31 30 28 27 25 24 22 21 20 20 21 20 20 20 20 20 20 20 20 21 21 22 22 20 19 18 19 19 20 21 24 26 27 24 19 18 19 20 23 23 23 23 24 24 25 26 27 23 21 21 21 20 20 19 19 19 20 20 20 20 20 21 20 20